Regional Weather Roundup
Issued by NWS

Home | Current Version | Previous Version | Graphics & Text | Print | Product List | Glossary Off
Versions: 1 2 3 4 5 6 7 8 9 10 11 12 13 14 15 16 17 18 19 20 21 22 23 24 25 26 27 28 29 30 31 32 33 34 35 36 37 38 39 40 41 42 43 44 45 46 47 48 49 50

000
ASUS43 KDTX 210610
RWRMI
MICHIGAN HOURLY REGIONAL WEATHER ROUNDUP
NATIONAL WEATHER SERVICE DETROIT/PONTIAC MI
200 AM EDT THU AUG 21 2014

NOTE: "FAIR" INDICATES FEW OR NO CLOUDS BELOW 12,000 FEET WITH NO
SIGNIFICANT WEATHER AND/OR OBSTRUCTION TO VISIBILITY.

MIZ047>049-052>055-059>063-066>070-074>076-081>083-210700-
SOUTHEAST LOWER MICHIGAN

CITY           SKY/WX    TMP DP  RH WIND       PRES   REMARKS
ADRIAN         MOCLDY    67  65  93 CALM      29.98F
6HR MIN TEMP:  67; 6HR MAX TEMP:  78;

ALMA             N/A     60  59  97 CALM      29.99S FOG
ANN ARBOR      MOCLDY    63  60  90 CALM      29.97F FOG
BAD AXE        FOG       62  62 100 CALM      29.96R VSB 3/4
6HR MIN TEMP:  62; 6HR MAX TEMP:  72;

DETROIT CITY     N/A     73  63  70 CALM      29.96S
6HR MIN TEMP:  72; 6HR MAX TEMP:  82;

DETROIT        MOCLDY    69  63  81 W3        29.97S
6HR MIN TEMP:  69; 6HR MAX TEMP:  79;

FLINT            N/A     67  62  84 W6        29.98R
6HR MIN TEMP:  66; 6HR MAX TEMP:  76;

GROSSE ILE       N/A     70  64  83 CALM      29.95F
HILLSDALE      MOCLDY    67  67 100 CALM      29.99F
HOWELL           N/A     65  63  94 CALM      29.98S
6HR MIN TEMP:  64; 6HR MAX TEMP:  74;


CITY           SKY/WX    TMP DP  RH WIND       PRES   REMARKS
JACKSON        MOCLDY    66  64  93 CALM      29.98F
6HR MIN TEMP:  65; 6HR MAX TEMP:  75;

LAMBERTVILLE     N/A     68  64  88 CALM      29.97F FOG
LANSING          N/A     65  62  90 CALM      29.98S
6HR MIN TEMP:  65; 6HR MAX TEMP:  75;

LAPEER         NOT AVBL
MASON            N/A     64  62  96 CALM      29.98F
MONROE         MOCLDY    66  64  94 CALM      29.95F
MT. CLEMENS      N/A     68  65  89 SW6       29.95S
6HR MIN TEMP:  67; 6HR MAX TEMP:  78;

PONTIAC          N/A     67  63  87 W5        29.97S
6HR MIN TEMP:  67; 6HR MAX TEMP:  77;

PORT HOPE        N/A     66  64  93 W5        29.93S
6HR MIN TEMP:  65; 6HR MAX TEMP:  70; 6HR PCP:  0.08;

PORT HURON       N/A     64  64 100 CALM      29.96R
TRI CITIES       N/A     63  61  93 W5        29.99R
6HR MIN TEMP:  63; 6HR MAX TEMP:  75;

YPSILANTI        N/A     69  63  81 CALM      29.97F
6HR MIN TEMP:  69; 6HR MAX TEMP:  82;

$$
MIZ043>046-050>051-056>058-064>065-071>073-077>080-210700-
SOUTHWEST LOWER MICHIGAN

CITY           SKY/WX    TMP DP  RH WIND       PRES   REMARKS
BATTLE CREEK   MOCLDY    70  65  84 N3        29.98F
6HR MIN TEMP:  70; 6HR MAX TEMP:  78;

BENTON HARBOR  MOCLDY    74  70  87 SW8       29.96S
6HR MIN TEMP:  68; 6HR MAX TEMP:  77;

BIG RAPIDS       N/A     58  58 100 CALM      29.99S
6HR MIN TEMP:  58; 6HR MAX TEMP:  70;

COLDWATER        N/A     69  67  95 CALM      29.97F
6HR MIN TEMP:  68; 6HR MAX TEMP:  79;

HOLLAND          N/A     67  64  90 CALM      29.98S
6HR MIN TEMP:  67; 6HR MAX TEMP:  77;

GRAND RAPIDS     N/A     67  66  97 E3        29.97F
6HR MIN TEMP:  67; 6HR MAX TEMP:  77;

KALAMAZOO        N/A     70  65  84 CALM      29.98S
6HR MIN TEMP:  67; 6HR MAX TEMP:  79;

MARSHALL       CLOUDY    65  64  96 CALM      29.97F
MUSKEGON         N/A     67  62  84 CALM      29.97F
6HR MIN TEMP:  65; 6HR MAX TEMP:  75;

$$
MIZ016>042-210700-
NORTHERN LOWER MICHIGAN

CITY           SKY/WX    TMP DP  RH WIND       PRES   REMARKS
ALPENA         CLOUDY    63  61  93 CALM      29.95S
6HR MIN TEMP:  63; 6HR MAX TEMP:  66;

BEAVER ISLAND  MOCLDY    60  59  97 CALM      29.96R
BELLAIRE       CLOUDY    64  61  91 CALM      29.97R
6HR MIN TEMP:  61; 6HR MAX TEMP:  65;

CADILLAC       FOG       55  55 100 CALM      29.99R VSB 3/4
CHARLEVOIX     CLOUDY    64  64  99 W3        29.99R
6HR MIN TEMP:  64; 6HR MAX TEMP:  64;

FRANKFORT      CLOUDY    61  58  90 CALM      29.99R
GAYLORD        CLOUDY    61  60  97 SW3       29.98R FOG
6HR MIN TEMP:  61; 6HR MAX TEMP:  63;

GRAYLING       CLOUDY    62  62  98 CALM      29.99S
HARBOR SPRINGS CLOUDY    64  62  96 CALM      29.95S FOG
HOUGHTON LAKE  CLOUDY    63  60  90 NW3       29.99S
6HR MIN TEMP:  62; 6HR MAX TEMP:  67;

MANISTEE         N/A     55  54  94 CALM      29.99R
OSCODA         CLOUDY    65  65  97 CALM      29.94S
PELLSTON       CLOUDY    63  62  97 CALM      29.96R
6HR MIN TEMP:  63; 6HR MAX TEMP:  64;

TRAVERSE CITY  MOCLDY    61  58  90 SW3       29.96S
6HR MIN TEMP:  60; 6HR MAX TEMP:  68;

$$
MIZ007>008-015-210700-
EASTERN UPPER MICHIGAN

CITY           SKY/WX    TMP DP  RH WIND       PRES   REMARKS
KINROSS        CLOUDY    61  61 100 NW5       29.95R
6HR MIN TEMP:  61; 6HR MAX TEMP:  61; 6HR PCP:  0.02;

MACKINAC ISLAN CLOUDY    60  60 100 N5        29.94S FOG
6HR MIN TEMP:  60; 6HR MAX TEMP:  62;

NEWBERRY       FOG       57  57  99 CALM      29.95S VSB 1
S. S. MARIE    CLOUDY    61  59  93 NW5       29.94S
6HR MIN TEMP:  60; 6HR MAX TEMP:  64; 6HR PCP: TRACE;

$$
MIZ004>006-011>014-085-210700-
CENTRAL UPPER MICHIGAN

CITY           SKY/WX    TMP DP  RH WIND       PRES   REMARKS
MANISTIQUE     FOG       56  56  99 CALM      29.95S VSB 1/2
ESCANABA       CLOUDY    63  61  94 CALM      29.96S
6HR MIN TEMP:  63; 6HR MAX TEMP:  64;

MENOMINEE      CLOUDY    66  63  88 CALM      29.95S
6HR MIN TEMP:  66; 6HR MAX TEMP:  70;

SAWYER-GWINN   FOG       57  57  97 SW5       29.97R VSB 1/2
$$
MIZ001>003-009>011-084-210700-
WESTERN UPPER MICHIGAN

CITY           SKY/WX    TMP DP  RH WIND       PRES   REMARKS
IRON MOUNTAIN  CLOUDY    64  61  90 CALM      29.97R
6HR MIN TEMP:  64; 6HR MAX TEMP:  67;

HOUGHTON       FOG       60  58  92 SW3       29.95S VSB 1/4
6HR MIN TEMP:  59; 6HR MAX TEMP:  62;

COPPER HARBOR    N/A     57  56  96 CALM      29.94F
6HR MIN TEMP:  54; 6HR MAX TEMP:  57;

IRONWOOD         N/A     54  54 100 CALM      29.94F
6HR MIN TEMP:  54; 6HR MAX TEMP:  64;

$$

ABBREVIATIONS USED IN REMARKS
   TC - TEMPERATURE IN CELSIUS
  WCI - WIND CHILL INDEX
   HX - HEAT INDEX
  VSB - VISIBILITY




USA.gov is the U.S. government's official web portal to all federal, state and local government web resources and services.